When you browse on this site, cookies collect data to enhance your experience and personalize the content and advertising you see.
Visit our Privacy Policy to learn more. By continuing to use the site, you agree to this use of cookies and data.
  • In United Kingdom
  • List of Countries
  • For 7 days
  • Water Temperature
  • Weather Map
  • Weather Widgets
  • user-avatar
    Login

    Hourly Weather Hohen Neuendorf

    Today, 29 January, Wednesday

    Time Temperature Precipitation Wind Pressure Humidity
    00:00 0°C° 0.3 mm 9 mps 740 mmHg 77%
    01:00 0°C° 0 mm 8 mps 741 mmHg 77%
    02:00 0°C° 0.2 mm 8 mps 741 mmHg 79%
    03:00 0°C° 0.2 mm 8 mps 741 mmHg 82%
    04:00 0°C° 0.2 mm 7 mps 741 mmHg 84%
    05:00 0°C° 0 mm 7 mps 742 mmHg 83%
    06:00 0°C° 0 mm 7 mps 743 mmHg 81%
    07:00 +1°C° 0 mm 6 mps 743 mmHg 79%
    08:00 +2°C° 0 mm 6 mps 744 mmHg 80%
    09:00 +2°C° 0 mm 6 mps 744 mmHg 82%
    10:00 +2°C° 0 mm 6 mps 744 mmHg 83%
    11:00 +2°C° 0.1 mm 7 mps 745 mmHg 81%
    12:00 +2°C° 0.1 mm 7 mps 745 mmHg 79%
    13:00 +3°C° 0.1 mm 7 mps 745 mmHg 76%
    14:00 +3°C° 0 mm 7 mps 745 mmHg 78%
    15:00 +2°C° 0 mm 7 mps 745 mmHg 80%
    16:00 +2°C° 0 mm 7 mps 745 mmHg 81%
    17:00 +2°C° 0 mm 7 mps 746 mmHg 83%
    18:00 +2°C° 0 mm 7 mps 747 mmHg 84%
    19:00 +2°C° 0 mm 7 mps 748 mmHg 85%
    20:00 +2°C° 0 mm 7 mps 748 mmHg 84%
    21:00 +2°C° 0 mm 6 mps 749 mmHg 83%
    22:00 +2°C° 0 mm 6 mps 749 mmHg 82%
    23:00 +2°C° 0 mm 6 mps 750 mmHg 83%

    Tomorrow, 30 January, Thursday

    Time Temperature Precipitation Wind Pressure Humidity
    00:00 +1°C° 0 mm 5 mps 751 mmHg 84%
    01:00 +1°C° 0 mm 5 mps 751 mmHg 85%
    02:00 +1°C° 0 mm 5 mps 751 mmHg 84%
    03:00 +1°C° 0 mm 5 mps 751 mmHg 84%
    04:00 +1°C° 0 mm 5 mps 751 mmHg 83%
    05:00 +1°C° 0.4 mm 6 mps 750 mmHg 87%
    06:00 +1°C° 0.4 mm 6 mps 750 mmHg 90%
    07:00 0°C° 0.4 mm 7 mps 749 mmHg 94%
    08:00 +2°C° 0.9 mm 7 mps 749 mmHg 92%
    09:00 +3°C° 0.9 mm 7 mps 749 mmHg 91%
    10:00 +3°C° 0.9 mm 7 mps 748 mmHg 89%
    11:00 +4°C° 0.3 mm 7 mps 748 mmHg 87%
    12:00 +4°C° 0.3 mm 7 mps 748 mmHg 86%
    13:00 +4°C° 0.3 mm 7 mps 749 mmHg 84%
    14:00 +4°C° 0.1 mm 7 mps 749 mmHg 83%
    15:00 +4°C° 0.1 mm 6 mps 748 mmHg 82%
    16:00 +5°C° 0.1 mm 6 mps 748 mmHg 81%
    17:00 +5°C° 0 mm 5 mps 748 mmHg 83%
    18:00 +4°C° 0 mm 4 mps 748 mmHg 85%
    19:00 +4°C° 0 mm 3 mps 748 mmHg 87%
    20:00 +4°C° 0 mm 4 mps 748 mmHg 87%
    21:00 +4°C° 0 mm 4 mps 747 mmHg 87%
    22:00 +4°C° 0 mm 4 mps 746 mmHg 87%
    23:00 +4°C° 0.2 mm 4 mps 745 mmHg 87%

    Day after tomorrow, 31 January, Friday

    Time Temperature Precipitation Wind Pressure Humidity
    00:00 +5°C° 0.2 mm 5 mps 744 mmHg 87%
    01:00 +5°C° 0.2 mm 5 mps 743 mmHg 87%
    02:00 +5°C° 0.2 mm 6 mps 743 mmHg 88%
    03:00 +8°C° 0.2 mm 6 mps 742 mmHg 88%
    04:00 +9°C° 0.2 mm 7 mps 742 mmHg 88%
    05:00 +8°C° 0.1 mm 7 mps 743 mmHg 87%
    06:00 +8°C° 0.1 mm 6 mps 744 mmHg 85%
    07:00 +7°C° 0.1 mm 6 mps 745 mmHg 83%
    08:00 +7°C° 0 mm 6 mps 746 mmHg 82%
    09:00 +7°C° 0 mm 6 mps 747 mmHg 81%
    10:00 +7°C° 0 mm 6 mps 748 mmHg 80%
    11:00 +7°C° 0 mm 6 mps 748 mmHg 78%
    12:00 +7°C° 0 mm 6 mps 749 mmHg 76%
    13:00 +8°C° 0 mm 6 mps 749 mmHg 74%
    14:00 +7°C° 0 mm 5 mps 750 mmHg 76%
    15:00 +7°C° 0 mm 4 mps 750 mmHg 77%
    16:00 +7°C° 0 mm 4 mps 750 mmHg 78%
    17:00 +7°C° 0 mm 4 mps 750 mmHg 81%
    18:00 +6°C° 0 mm 4 mps 751 mmHg 85%
    19:00 +6°C° 0 mm 4 mps 751 mmHg 88%
    20:00 +6°C° 0 mm 4 mps 751 mmHg 88%
    21:00 +6°C° 0 mm 4 mps 751 mmHg 87%
    22:00 +6°C° 0 mm 4 mps 751 mmHg 87%
    23:00 +6°C° 0 mm 4 mps 750 mmHg 87%

    1 February, Saturday

    Time Temperature Precipitation Wind Pressure Humidity
    00:00 +6°C° 0 mm 4 mps 750 mmHg 86%
    01:00 +7°C° 0 mm 4 mps 750 mmHg 86%
    02:00 +7°C° 0 mm 4 mps 749 mmHg 86%
    03:00 +7°C° 0 mm 4 mps 749 mmHg 86%
    04:00 +7°C° 0 mm 4 mps 748 mmHg 85%
    05:00 +7°C° 0.1 mm 5 mps 748 mmHg 86%
    06:00 +7°C° 0.1 mm 5 mps 747 mmHg 87%
    07:00 +8°C° 0.1 mm 5 mps 747 mmHg 88%
    08:00 +8°C° 0.2 mm 5 mps 746 mmHg 87%
    09:00 +8°C° 0.2 mm 6 mps 746 mmHg 87%
    10:00 +8°C° 0.2 mm 6 mps 745 mmHg 86%
    11:00 +9°C° 0.2 mm 6 mps 745 mmHg 86%
    12:00 +9°C° 0.2 mm 6 mps 744 mmHg 85%
    13:00 +10°C° 0.2 mm 6 mps 744 mmHg 85%
    14:00 +10°C° 0.2 mm 6 mps 744 mmHg 83%
    15:00 +10°C° 0.2 mm 6 mps 744 mmHg 81%
    16:00 +10°C° 0.2 mm 6 mps 744 mmHg 80%
    17:00 +9°C° 0 mm 6 mps 745 mmHg 77%
    18:00 +8°C° 0 mm 6 mps 746 mmHg 75%
    19:00 +7°C° 0 mm 6 mps 747 mmHg 72%
    20:00 +5°C° 0 mm 6 mps 747 mmHg 73%
    21:00 +4°C° 0 mm 6 mps 748 mmHg 74%
    22:00 +3°C° 0 mm 6 mps 748 mmHg 74%
    23:00 +3°C° 0 mm 6 mps 749 mmHg 75%

    2 February, Sunday

    Time Temperature Precipitation Wind Pressure Humidity
    00:00 +3°C° 0 mm 7 mps 749 mmHg 76%
    01:00 +3°C° 0 mm 7 mps 749 mmHg 77%
    02:00 +2°C° 0 mm 8 mps 749 mmHg 77%
    03:00 +2°C° 0 mm 8 mps 749 mmHg 78%
    04:00 +2°C° 0 mm 9 mps 749 mmHg 79%
    05:00 +2°C° 0.2 mm 9 mps 750 mmHg 80%
    06:00 +3°C° 0.2 mm 9 mps 750 mmHg 82%
    07:00 +3°C° 0.2 mm 9 mps 751 mmHg 83%
    08:00 +4°C° 0.1 mm 8 mps 752 mmHg 80%
    09:00 +4°C° 0.1 mm 8 mps 753 mmHg 77%
    10:00 +4°C° 0.1 mm 7 mps 754 mmHg 75%
    11:00 +4°C° 0 mm 7 mps 754 mmHg 74%
    12:00 +4°C° 0 mm 6 mps 754 mmHg 74%
    13:00 +4°C° 0 mm 6 mps 755 mmHg 74%
    14:00 +4°C° 0 mm 6 mps 755 mmHg 75%
    15:00 +5°C° 0 mm 5 mps 754 mmHg 77%
    16:00 +5°C° 0 mm 5 mps 754 mmHg 78%
    17:00 +5°C° 0.1 mm 4 mps 754 mmHg 81%
    18:00 +4°C° 0.1 mm 4 mps 754 mmHg 83%
    19:00 +4°C° 0.1 mm 3 mps 754 mmHg 85%
    20:00 +4°C° 0.1 mm 3 mps 753 mmHg 87%
    21:00 +4°C° 0.1 mm 3 mps 753 mmHg 88%
    22:00 +5°C° 0.1 mm 3 mps 753 mmHg 90%
    23:00 +5°C° 0.1 mm 4 mps 753 mmHg 90%

    3 February, Monday

    Time Temperature Precipitation Wind Pressure Humidity
    00:00 +6°C° 0.1 mm 4 mps 753 mmHg 91%
    01:00 +7°C° 0.1 mm 5 mps 753 mmHg 91%
    02:00 +7°C° 0 mm 6 mps 753 mmHg 88%
    03:00 +7°C° 0 mm 6 mps 753 mmHg 84%
    04:00 +7°C° 0 mm 6 mps 754 mmHg 81%
    05:00 +7°C° 0 mm 6 mps 754 mmHg 83%
    06:00 +7°C° 0 mm 6 mps 755 mmHg 84%
    07:00 +7°C° 0 mm 5 mps 755 mmHg 85%
    08:00 +7°C° 0 mm 5 mps 756 mmHg 85%
    09:00 +7°C° 0 mm 5 mps 756 mmHg 84%
    10:00 +7°C° 0 mm 5 mps 756 mmHg 83%
    11:00 +8°C° 0 mm 5 mps 756 mmHg 81%
    12:00 +8°C° 0 mm 4 mps 756 mmHg 79%
    13:00 +10°C° 0 mm 4 mps 756 mmHg 76%
    14:00 +8°C° 0 mm 4 mps 756 mmHg 78%
    15:00 +9°C° 0 mm 3 mps 755 mmHg 80%
    16:00 +9°C° 0 mm 3 mps 755 mmHg 81%
    17:00 +9°C° 1.4 mm 3 mps 754 mmHg 85%
    18:00 +8°C° 1.4 mm 4 mps 753 mmHg 89%
    19:00 +7°C° 1.4 mm 4 mps 753 mmHg 93%
    20:00 +8°C° 1.3 mm 4 mps 752 mmHg 92%
    21:00 +9°C° 1.3 mm 5 mps 752 mmHg 90%
    22:00 +10°C° 1.3 mm 6 mps 751 mmHg 88%
    23:00 +10°C° 0.1 mm 5 mps 751 mmHg 89%
    Show more